TimePST,TemperatureF,Dew PointF,Humidity,Sea Level PressureIn,VisibilityMPH,Wind Direction,Wind SpeedMPH,Gust SpeedMPH,PrecipitationIn,Events,Conditions,WindDirDegrees,DateUTC
12:53 AM,48.0,43.0,83,29.99,10.0,WSW,4.6,-,N/A,,Clear,240,2011-11-07 08:53:00
1:53 AM,48.9,42.1,77,29.98,10.0,West,6.9,-,N/A,,Clear,270,2011-11-07 09:53:00
2:53 AM,48.0,42.1,80,29.98,10.0,Calm,Calm,-,N/A,,Clear,0,2011-11-07 10:53:00
3:53 AM,46.0,42.1,86,29.99,10.0,NW,4.6,-,N/A,,Clear,320,2011-11-07 11:53:00
4:53 AM,46.9,41.0,80,30.00,10.0,Calm,Calm,-,N/A,,Clear,0,2011-11-07 12:53:00
5:53 AM,45.0,39.9,82,30.02,10.0,Calm,Calm,-,N/A,,Clear,0,2011-11-07 13:53:00
6:53 AM,46.0,39.9,79,30.05,10.0,Calm,Calm,-,N/A,,Clear,0,2011-11-07 14:53:00
7:53 AM,51.1,39.9,66,30.07,10.0,Calm,Calm,-,N/A,,Clear,0,2011-11-07 15:53:00
8:53 AM,55.0,41.0,59,30.08,10.0,SSW,3.5,-,N/A,,Clear,200,2011-11-07 16:53:00
9:53 AM,60.1,37.0,42,30.08,10.0,Variable,3.5,-,N/A,,Clear,0,2011-11-07 17:53:00
10:53 AM,64.0,34.0,33,30.07,10.0,Calm,Calm,-,N/A,,Clear,0,2011-11-07 18:53:00
11:53 AM,66.0,35.1,32,30.06,10.0,Calm,Calm,-,N/A,,Clear,0,2011-11-07 19:53:00
12:53 PM,68.0,37.4,33,30.04,10.0,North,5.8,-,N/A,,Clear,10,2011-11-07 20:53:00
1:53 PM,68.0,34.0,28,30.04,10.0,NW,4.6,-,N/A,,Scattered Clouds,310,2011-11-07 21:53:00
2:53 PM,68.0,33.1,27,30.05,10.0,NW,9.2,-,N/A,,Clear,320,2011-11-07 22:53:00
3:53 PM,66.9,30.9,26,30.06,10.0,NW,5.8,-,N/A,,Clear,320,2011-11-07 23:53:00
4:53 PM,64.0,34.0,33,30.08,10.0,NW,4.6,-,N/A,,Clear,310,2011-11-08 00:53:00
5:53 PM,62.1,36.0,38,30.11,10.0,NW,3.5,-,N/A,,Clear,320,2011-11-08 01:53:00
6:53 PM,62.1,35.1,37,30.13,10.0,Calm,Calm,-,N/A,,Clear,0,2011-11-08 02:53:00
7:53 PM,57.9,37.0,46,30.14,10.0,West,4.6,-,N/A,,Clear,270,2011-11-08 03:53:00
8:53 PM,57.9,37.0,46,30.16,10.0,NNW,9.2,-,N/A,,Clear,330,2011-11-08 04:53:00
9:53 PM,55.9,37.9,51,30.17,10.0,NW,8.1,-,N/A,,Clear,320,2011-11-08 05:53:00
10:53 PM,53.1,37.9,57,30.18,10.0,North,9.2,-,N/A,,Clear,350,2011-11-08 06:53:00
11:53 PM,54.0,37.9,55,30.19,10.0,NNW,6.9,-,N/A,,Clear,340,2011-11-08 07:53:00